• în România
  • Lista ţărilor
  • Pe 7 zile
  • Temperatura apei
  • Hartă satelitară
  • Meteo pe hartă
  • Widget-uri
  • user-avatar
    Intrare

    Meteo pe oră la Hajfong

    Astăzi, 17 August, Vineri

    Timp Temperatura Precipitaţii Vânt Presiune Umiditate
    00:00 +29°C° 0,9 mm 7 m/s 747 mmHg 88%
    01:00 +29°C° 0 mm 8 m/s 747 mmHg 87%
    02:00 +29°C° 2,8 mm 7 m/s 747 mmHg 88%
    03:00 +28°C° 2,8 mm 6 m/s 746 mmHg 89%
    04:00 +28°C° 2,8 mm 5 m/s 746 mmHg 91%
    05:00 +28°C° 2,8 mm 5 m/s 747 mmHg 91%
    06:00 +28°C° 2,8 mm 4 m/s 747 mmHg 91%
    07:00 +28°C° 0 mm 5 m/s 747 mmHg 92%
    08:00 +29°C° 1 mm 4 m/s 747 mmHg 90%
    09:00 +29°C° 1 mm 4 m/s 747 mmHg 89%
    10:00 +29°C° 1 mm 4 m/s 748 mmHg 88%
    11:00 +29°C° 0,9 mm 4 m/s 748 mmHg 87%
    12:00 +29°C° 0,9 mm 3 m/s 748 mmHg 87%
    13:00 +30°C° 0 mm 3 m/s 748 mmHg 87%
    14:00 +30°C° 1,3 mm 3 m/s 748 mmHg 87%
    15:00 +30°C° 1,3 mm 3 m/s 748 mmHg 87%
    16:00 +30°C° 1,3 mm 2 m/s 748 mmHg 87%
    17:00 +29°C° 0,8 mm 3 m/s 748 mmHg 88%
    18:00 +29°C° 0,8 mm 3 m/s 748 mmHg 89%
    19:00 +28°C° 0 mm 3 m/s 749 mmHg 90%
    20:00 +28°C° 1,4 mm 3 m/s 749 mmHg 91%
    21:00 +28°C° 1,4 mm 3 m/s 749 mmHg 91%
    22:00 +28°C° 1,4 mm 3 m/s 750 mmHg 91%
    23:00 +28°C° 1,3 mm 3 m/s 750 mmHg 91%

    Mâine, 18 August, Sâmbătă

    Timp Temperatura Precipitaţii Vânt Presiune Umiditate
    00:00 +28°C° 1,3 mm 3 m/s 750 mmHg 91%
    01:00 +28°C° 1,3 mm 3 m/s 750 mmHg 91%
    02:00 +28°C° 0,6 mm 3 m/s 750 mmHg 92%
    03:00 +28°C° 0,6 mm 3 m/s 749 mmHg 92%
    04:00 +27°C° 0,6 mm 3 m/s 749 mmHg 92%
    05:00 +28°C° 0,3 mm 3 m/s 749 mmHg 92%
    06:00 +28°C° 0,3 mm 3 m/s 750 mmHg 91%
    07:00 +28°C° 0,3 mm 3 m/s 750 mmHg 90%
    08:00 +29°C° 0,9 mm 3 m/s 750 mmHg 86%
    09:00 +30°C° 0,9 mm 3 m/s 750 mmHg 82%
    10:00 +31°C° 0,9 mm 3 m/s 750 mmHg 78%
    11:00 +33°C° 2,1 mm 3 m/s 750 mmHg 77%
    12:00 +32°C° 2,1 mm 2 m/s 750 mmHg 76%
    13:00 +32°C° 2,1 mm 2 m/s 750 mmHg 76%
    14:00 +32°C° 1,7 mm 2 m/s 749 mmHg 77%
    15:00 +32°C° 1,7 mm 2 m/s 749 mmHg 79%
    16:00 +31°C° 1,7 mm 1 m/s 749 mmHg 81%
    17:00 +31°C° 0,1 mm 1 m/s 749 mmHg 83%
    18:00 +30°C° 0,1 mm 1 m/s 749 mmHg 85%
    19:00 +29°C° 0,1 mm 1 m/s 749 mmHg 87%
    20:00 +27°C° 0 mm 0 m/s 750 mmHg 88%
    21:00 +27°C° 0 mm 0 m/s 750 mmHg 88%
    22:00 +27°C° 0 mm 0 m/s 751 mmHg 88%
    23:00 +29°C° 0,1 mm 1 m/s 751 mmHg 88%

    Poimâine, 19 August, Duminică

    Timp Temperatura Precipitaţii Vânt Presiune Umiditate
    00:00 +28°C° 0,1 mm 1 m/s 751 mmHg 89%
    01:00 +28°C° 0,1 mm 1 m/s 750 mmHg 89%
    02:00 +28°C° 0 mm 1 m/s 750 mmHg 90%
    03:00 +28°C° 0 mm 1 m/s 750 mmHg 90%
    04:00 +28°C° 0 mm 1 m/s 750 mmHg 90%
    05:00 +28°C° 0 mm 1 m/s 750 mmHg 88%
    06:00 +29°C° 0 mm 1 m/s 751 mmHg 87%
    07:00 +29°C° 0 mm 1 m/s 751 mmHg 86%
    08:00 +30°C° 0 mm 1 m/s 751 mmHg 80%
    09:00 +32°C° 0 mm 2 m/s 751 mmHg 75%
    10:00 +34°C° 0 mm 2 m/s 751 mmHg 70%
    11:00 +35°C° 0,1 mm 2 m/s 751 mmHg 67%
    12:00 +35°C° 0,1 mm 2 m/s 750 mmHg 65%
    13:00 +36°C° 0,1 mm 2 m/s 750 mmHg 62%
    14:00 +36°C° 0,3 mm 2 m/s 749 mmHg 64%
    15:00 +36°C° 0,3 mm 2 m/s 749 mmHg 67%
    16:00 +35°C° 0,3 mm 3 m/s 748 mmHg 69%
    17:00 +34°C° 0 mm 3 m/s 749 mmHg 74%
    18:00 +33°C° 0 mm 3 m/s 749 mmHg 79%
    19:00 +30°C° 0 mm 3 m/s 749 mmHg 84%
    20:00 +30°C° 0 mm 2 m/s 750 mmHg 84%
    21:00 +30°C° 0 mm 2 m/s 751 mmHg 85%
    22:00 +30°C° 0 mm 2 m/s 751 mmHg 85%
    23:00 +29°C° 0,1 mm 2 m/s 751 mmHg 86%

    20 August, Luni

    Timp Temperatura Precipitaţii Vânt Presiune Umiditate
    00:00 +29°C° 0,1 mm 2 m/s 751 mmHg 86%
    01:00 +29°C° 0,1 mm 2 m/s 750 mmHg 87%
    02:00 +29°C° 0 mm 1 m/s 750 mmHg 87%
    03:00 +29°C° 0 mm 1 m/s 750 mmHg 88%
    04:00 +29°C° 0 mm 1 m/s 749 mmHg 88%
    05:00 +29°C° 0 mm 1 m/s 750 mmHg 87%
    06:00 +30°C° 0 mm 1 m/s 750 mmHg 85%
    07:00 +30°C° 0 mm 1 m/s 750 mmHg 83%
    08:00 +32°C° 0 mm 1 m/s 751 mmHg 78%
    09:00 +33°C° 0 mm 1 m/s 751 mmHg 72%
    10:00 +35°C° 0 mm 1 m/s 751 mmHg 66%
    11:00 +35°C° 0 mm 1 m/s 750 mmHg 64%
    12:00 +36°C° 0 mm 1 m/s 750 mmHg 62%
    13:00 +37°C° 0 mm 2 m/s 749 mmHg 60%
    14:00 +37°C° 0 mm 2 m/s 749 mmHg 63%
    15:00 +36°C° 0 mm 2 m/s 748 mmHg 66%
    16:00 +36°C° 0 mm 3 m/s 747 mmHg 68%
    17:00 +35°C° 0,3 mm 3 m/s 748 mmHg 74%
    18:00 +33°C° 0,3 mm 3 m/s 748 mmHg 79%
    19:00 +31°C° 0,3 mm 2 m/s 749 mmHg 85%
    20:00 +31°C° 0,3 mm 2 m/s 749 mmHg 85%
    21:00 +30°C° 0,3 mm 2 m/s 749 mmHg 85%
    22:00 +30°C° 0,3 mm 2 m/s 750 mmHg 86%
    23:00 +30°C° 0 mm 2 m/s 749 mmHg 86%

    21 August, Marţi

    Timp Temperatura Precipitaţii Vânt Presiune Umiditate
    00:00 +30°C° 0 mm 2 m/s 749 mmHg 87%
    01:00 +30°C° 0 mm 2 m/s 748 mmHg 87%
    02:00 +30°C° 0 mm 2 m/s 748 mmHg 88%
    03:00 +29°C° 0 mm 2 m/s 748 mmHg 88%
    04:00 +29°C° 0 mm 1 m/s 747 mmHg 88%
    05:00 +30°C° 0 mm 1 m/s 748 mmHg 87%
    06:00 +30°C° 0 mm 1 m/s 748 mmHg 86%
    07:00 +30°C° 0 mm 1 m/s 748 mmHg 85%
    08:00 +32°C° 0 mm 1 m/s 748 mmHg 79%
    09:00 +33°C° 0 mm 1 m/s 749 mmHg 73%
    10:00 +35°C° 0 mm 1 m/s 749 mmHg 67%
    11:00 +36°C° 0 mm 1 m/s 748 mmHg 64%
    12:00 +36°C° 0 mm 1 m/s 747 mmHg 61%
    13:00 +38°C° 0 mm 2 m/s 747 mmHg 59%
    14:00 +37°C° 0,6 mm 2 m/s 746 mmHg 62%
    15:00 +37°C° 0,6 mm 2 m/s 746 mmHg 66%
    16:00 +36°C° 0,6 mm 2 m/s 745 mmHg 69%
    17:00 +35°C° 0 mm 2 m/s 746 mmHg 74%
    18:00 +34°C° 0 mm 2 m/s 746 mmHg 79%
    19:00 +32°C° 0 mm 2 m/s 747 mmHg 84%
    20:00 +32°C° 0,3 mm 2 m/s 747 mmHg 84%
    21:00 +31°C° 0,3 mm 2 m/s 748 mmHg 84%
    22:00 +31°C° 0,3 mm 2 m/s 748 mmHg 84%
    23:00 +31°C° 0,3 mm 2 m/s 748 mmHg 84%

    22 August, Miercuri

    Timp Temperatura Precipitaţii Vânt Presiune Umiditate
    00:00 +31°C° 0,3 mm 2 m/s 747 mmHg 84%
    01:00 +30°C° 0,3 mm 2 m/s 747 mmHg 84%
    02:00 +30°C° 0 mm 2 m/s 747 mmHg 85%
    03:00 +30°C° 0 mm 2 m/s 747 mmHg 86%
    04:00 +30°C° 0 mm 2 m/s 747 mmHg 86%
    05:00 +30°C° 0 mm 2 m/s 747 mmHg 86%
    06:00 +31°C° 0 mm 2 m/s 747 mmHg 86%
    07:00 +31°C° 0 mm 2 m/s 748 mmHg 86%
    08:00 +32°C° 0 mm 2 m/s 748 mmHg 82%
    09:00 +32°C° 0 mm 2 m/s 748 mmHg 78%
    10:00 +34°C° 0 mm 2 m/s 748 mmHg 74%
    11:00 +34°C° 1,6 mm 2 m/s 748 mmHg 74%
    12:00 +35°C° 1,6 mm 2 m/s 747 mmHg 74%
    13:00 +34°C° 1,6 mm 1 m/s 747 mmHg 75%
    14:00 +34°C° 0,1 mm 1 m/s 747 mmHg 73%
    15:00 +34°C° 0,1 mm 1 m/s 746 mmHg 71%
    16:00 +34°C° 0,1 mm 1 m/s 746 mmHg 70%
    17:00 +34°C° 0,1 mm 2 m/s 746 mmHg 74%
    18:00 +32°C° 0,1 mm 2 m/s 747 mmHg 79%
    19:00 +31°C° 0,1 mm 2 m/s 747 mmHg 83%
    20:00 +31°C° 0,8 mm 2 m/s 748 mmHg 84%
    21:00 +31°C° 0,8 mm 2 m/s 748 mmHg 85%
    22:00 +30°C° 0,8 mm 2 m/s 749 mmHg 86%
    23:00 +30°C° 0,7 mm 2 m/s 749 mmHg 86%
    Arată mai mult